LOT25N EPKK-EPWA

Flight info

Callsign LOT25N
Flight time N/A
Altitude 23000
Route POBOK M985 KOTEK M866 LOGDA
Aircraft B738/M-SDE2E3FGHIRWXY/LB1

Departure

Time 2026-05-04 18:20
Airport Kraków John Paul II International Airport (EPKK)

Arrival

Time N/A
Airport Warsaw Chopin Airport (EPWA)
Time Latitude Longitude Altitude Speed Heading
2026-05-04 18:06 50.07362 19.80240 773 ft 0 kts 166°
2026-05-04 18:11 50.07363 19.80240 773 ft 0 kts 166°
2026-05-04 18:13 50.07369 19.80238 773 ft 2 kts 173°
2026-05-04 18:13 50.07384 19.80234 773 ft 2 kts 165°
2026-05-04 18:13 50.07411 19.80224 773 ft 2 kts 165°
2026-05-04 18:14 50.07422 19.80211 773 ft 2 kts 115°
2026-05-04 18:14 50.07424 19.80189 773 ft 2 kts 75°
2026-05-04 18:14 50.07419 19.80167 773 ft 2 kts 78°
2026-05-04 18:15 50.07416 19.80142 773 ft 0 kts 77°
2026-05-04 18:17 50.07425 19.80203 773 ft 8 kts 77°
2026-05-04 18:17 50.07443 19.80326 771 ft 13 kts 75°
2026-05-04 18:17 50.07573 19.80423 769 ft 10 kts
2026-05-04 18:18 50.07653 19.80401 769 ft 13 kts 347°
2026-05-04 18:18 50.07753 19.80366 769 ft 16 kts 348°
2026-05-04 18:18 50.07859 19.80330 770 ft 13 kts 348°
2026-05-04 18:18 50.07904 19.80315 771 ft 9 kts 348°
2026-05-04 18:19 50.07972 19.80292 772 ft 4 kts 347°
2026-05-04 18:19 50.08011 19.80226 773 ft 13 kts 277°
2026-05-04 18:19 50.07981 19.79985 776 ft 48 kts 257°
2026-05-04 18:20 50.07843 19.78997 777 ft 135 kts 258°
2026-05-04 18:20 50.07609 19.77325 1187 ft 171 kts 258°
2026-05-04 18:20 50.07358 19.75547 2119 ft 172 kts 257°
2026-05-04 18:20 50.07100 19.73736 2888 ft 175 kts 258°
2026-05-04 18:21 50.06790 19.71633 2824 ft 233 kts 258°
2026-05-04 18:21 50.06439 19.69093 3864 ft 242 kts 258°
2026-05-04 18:21 50.06300 19.66436 4646 ft 268 kts 280°
2026-05-04 18:21 50.07079 19.63882 5960 ft 268 kts 310°
2026-05-04 18:22 50.08530 19.62136 7091 ft 275 kts 336°
2026-05-04 18:22 50.10380 19.61589 8236 ft 279 kts
2026-05-04 18:22 50.12300 19.61552 9335 ft 283 kts
2026-05-04 18:22 50.14230 19.62155 10398 ft 288 kts 20°
2026-05-04 18:23 50.15900 19.63751 11403 ft 292 kts 40°
2026-05-04 18:23 50.17448 19.65828 12418 ft 297 kts 41°
2026-05-04 18:23 50.18992 19.67922 13376 ft 301 kts 41°
2026-05-04 18:23 50.20587 19.70089 14328 ft 306 kts 41°
2026-05-04 18:24 50.22175 19.72246 15232 ft 310 kts 41°
2026-05-04 18:24 50.23763 19.74407 16094 ft 314 kts 41°
2026-05-04 18:24 50.25371 19.76596 16928 ft 318 kts 41°
2026-05-04 18:24 50.27039 19.78869 17755 ft 323 kts 41°
2026-05-04 18:25 50.28726 19.81170 18554 ft 327 kts 41°
2026-05-04 18:25 50.30444 19.83515 19333 ft 331 kts 41°
2026-05-04 18:25 50.32160 19.85861 20077 ft 334 kts 41°
2026-05-04 18:25 50.33907 19.88252 20804 ft 338 kts 41°
2026-05-04 18:26 50.35693 19.90697 21515 ft 342 kts 41°
2026-05-04 18:26 50.37477 19.93144 22197 ft 346 kts 41°
2026-05-04 18:26 50.39275 19.95611 22847 ft 350 kts 41°
2026-05-04 18:26 50.41122 19.98149 23010 ft 357 kts 41°
2026-05-04 18:27 50.42990 20.00718 23025 ft 354 kts 41°
2026-05-04 18:27 50.44823 20.03242 23020 ft 351 kts 41°
2026-05-04 18:27 50.46632 20.05735 23026 ft 350 kts 41°
2026-05-04 18:27 50.48454 20.08249 23028 ft 350 kts 41°
2026-05-04 18:28 50.50290 20.10785 23027 ft 351 kts 41°
2026-05-04 18:28 50.52113 20.13306 23027 ft 351 kts 41°
2026-05-04 18:28 50.53949 20.15846 23027 ft 351 kts 41°
2026-05-04 18:28 50.55755 20.18350 23027 ft 351 kts 41°
2026-05-04 18:29 50.57599 20.20857 23017 ft 351 kts 36°
2026-05-04 18:29 50.59749 20.22693 23067 ft 349 kts 25°
2026-05-04 18:29 50.61959 20.24264 23015 ft 352 kts 23°
2026-05-04 18:29 50.64191 20.25791 23031 ft 351 kts 23°
2026-05-04 18:30 50.68607 20.28764 22232 ft 346 kts 22°
2026-05-04 18:30 50.70809 20.30241 21770 ft 344 kts 22°
2026-05-04 18:30 50.72980 20.31698 21360 ft 341 kts 22°
2026-05-04 18:31 50.75131 20.33142 20916 ft 339 kts 22°
2026-05-04 18:31 50.77291 20.34593 20490 ft 337 kts 22°
2026-05-04 18:31 50.79431 20.36032 20061 ft 335 kts 22°
2026-05-04 18:31 50.81561 20.37466 19636 ft 332 kts 22°
2026-05-04 18:32 50.83683 20.38895 19213 ft 330 kts 22°
2026-05-04 18:32 50.85747 20.40287 18801 ft 328 kts 22°
2026-05-04 18:32 50.87814 20.41683 18389 ft 326 kts 22°
2026-05-04 18:32 50.89900 20.43092 17973 ft 324 kts 22°
2026-05-04 18:33 50.91955 20.44482 17564 ft 322 kts 22°
2026-05-04 18:33 50.94002 20.45868 17156 ft 320 kts 22°
2026-05-04 18:33 50.96031 20.47244 16753 ft 318 kts 22°
2026-05-04 18:33 50.98049 20.48612 16352 ft 316 kts 22°
2026-05-04 18:34 51.00059 20.49977 15953 ft 314 kts 22°
2026-05-04 18:34 51.02053 20.51332 15558 ft 312 kts 22°
2026-05-04 18:34 51.04021 20.52671 15198 ft 309 kts 22°
2026-05-04 18:34 51.05898 20.53949 15779 ft 286 kts 22°
2026-05-04 18:35 51.07775 20.55228 15012 ft 302 kts 22°
2026-05-04 18:35 51.09683 20.56529 14759 ft 295 kts 22°
2026-05-04 18:35 51.11514 20.57779 14379 ft 295 kts 22°
2026-05-04 18:35 51.13386 20.59058 14038 ft 293 kts 22°
2026-05-04 18:36 51.15232 20.60320 13687 ft 291 kts 22°
2026-05-04 18:36 51.17105 20.61603 13330 ft 290 kts 22°
2026-05-04 18:36 51.18925 20.62849 12988 ft 288 kts 22°
2026-05-04 18:36 51.20757 20.64105 12642 ft 287 kts 22°
2026-05-04 18:37 51.22570 20.65350 12300 ft 285 kts 23°
2026-05-04 18:37 51.24362 20.66581 11963 ft 284 kts 23°
2026-05-04 18:37 51.26184 20.67834 11621 ft 282 kts 23°
2026-05-04 18:37 51.27976 20.69066 11285 ft 281 kts 23°
2026-05-04 18:38 51.29793 20.70097 10947 ft 279 kts 19°
2026-05-04 18:38 51.31629 20.71083 10612 ft 278 kts 19°
2026-05-04 18:38 51.33450 20.72058 10286 ft 277 kts 19°
2026-05-04 18:38 51.35268 20.73031 10063 ft 278 kts 19°
2026-05-04 18:39 51.37072 20.73997 10033 ft 277 kts 19°
2026-05-04 18:39 51.38906 20.74979 10029 ft 275 kts 19°
2026-05-04 18:39 51.40712 20.75948 10027 ft 275 kts 19°
2026-05-04 18:39 51.42521 20.76918 10027 ft 276 kts 19°
2026-05-04 18:40 51.44329 20.77888 10027 ft 276 kts 19°
2026-05-04 18:40 51.46164 20.78874 10027 ft 276 kts 19°
2026-05-04 18:40 51.47964 20.79842 10027 ft 276 kts 19°
2026-05-04 18:40 51.49780 20.80819 10027 ft 276 kts 19°
2026-05-04 18:41 51.51596 20.81798 10027 ft 276 kts 19°
2026-05-04 18:41 51.53402 20.82771 10027 ft 276 kts 19°
2026-05-04 18:41 51.55213 20.83748 10053 ft 275 kts 19°
2026-05-04 18:41 51.57030 20.84729 10095 ft 276 kts 19°
2026-05-04 18:42 51.58856 20.85716 10101 ft 276 kts 19°
2026-05-04 18:42 51.60664 20.86694 10099 ft 276 kts 19°
2026-05-04 18:42 51.62478 20.87676 10100 ft 276 kts 19°
2026-05-04 18:42 51.64307 20.88667 10100 ft 276 kts 19°
2026-05-04 18:43 51.66114 20.89647 10100 ft 276 kts 19°
2026-05-04 18:43 51.67927 20.90635 10099 ft 276 kts 20°
2026-05-04 18:43 51.69659 20.91955 10111 ft 275 kts 27°
2026-05-04 18:43 51.71351 20.93369 10094 ft 276 kts 28°
2026-05-04 18:44 51.73059 20.94826 9352 ft 283 kts 28°
2026-05-04 18:44 51.74212 20.95813 8867 ft 280 kts 28°
2026-05-04 18:44 51.76478 20.97755 7864 ft 276 kts 28°
2026-05-04 18:44 51.78147 20.99188 7119 ft 274 kts 28°
2026-05-04 18:45 51.79822 21.00627 6364 ft 272 kts 28°
2026-05-04 18:45 51.81470 21.02043 5617 ft 270 kts 28°
2026-05-04 18:45 51.83094 21.03441 5117 ft 257 kts 28°
2026-05-04 18:45 51.84591 21.04730 5061 ft 232 kts 28°
2026-05-04 18:46 51.85978 21.05925 5203 ft 226 kts 28°
2026-05-04 18:46 51.87192 21.07390 4869 ft 228 kts 50°
2026-05-04 18:46 51.88038 21.09609 4210 ft 236 kts 60°
2026-05-04 18:46 51.88824 21.11926 4135 ft 230 kts 61°
2026-05-04 18:47 51.89572 21.14169 4103 ft 228 kts 62°
2026-05-04 18:47 51.90596 21.16120 4090 ft 230 kts 31°
2026-05-04 18:47 51.92103 21.16871 4118 ft 232 kts
2026-05-04 18:47 51.93727 21.16839 4093 ft 233 kts 344°
2026-05-04 18:48 51.95146 21.15632 4139 ft 232 kts 327°
2026-05-04 18:48 51.96508 21.14284 4119 ft 229 kts 329°
2026-05-04 18:48 51.97733 21.13090 4166 ft 218 kts 329°
2026-05-04 18:48 51.99014 21.11960 3984 ft 222 kts 332°
2026-05-04 18:49 52.00338 21.10820 3757 ft 211 kts 332°
2026-05-04 18:49 52.01588 21.09742 3501 ft 197 kts 332°
2026-05-04 18:49 52.02757 21.08732 3215 ft 183 kts 332°
2026-05-04 18:49 52.03837 21.07793 2974 ft 182 kts 332°
2026-05-04 18:50 52.04932 21.06842 2721 ft 174 kts 332°
2026-05-04 18:50 52.05924 21.05982 2446 ft 155 kts 332°
2026-05-04 18:50 52.06837 21.05189 2187 ft 143 kts 332°
2026-05-04 18:50 52.07683 21.04454 1996 ft 139 kts 332°
2026-05-04 18:51 52.08549 21.03702 1852 ft 141 kts 332°
2026-05-04 18:51 52.09405 21.02958 1691 ft 143 kts 332°
2026-05-04 18:51 52.10231 21.02240 1522 ft 143 kts 332°
2026-05-04 18:51 52.10996 21.01578 1361 ft 142 kts 332°
2026-05-04 18:52 52.11853 21.00832 1175 ft 142 kts 332°
2026-05-04 18:52 52.12700 21.00086 983 ft 141 kts 332°
2026-05-04 18:52 52.13565 20.99357 824 ft 140 kts 333°
2026-05-04 18:52 52.14414 20.98622 650 ft 136 kts 331°
2026-05-04 18:53 52.15239 20.97883 476 ft 139 kts 331°
2026-05-04 18:53 52.16147 20.97058 888 ft 158 kts 330°
2026-05-04 18:53 52.17140 20.96149 1593 ft 174 kts 330°
2026-05-04 18:53 52.18265 20.95114 2217 ft 204 kts 330°
2026-05-04 18:54 52.19587 20.93898 2700 ft 243 kts 330°
2026-05-04 18:54 52.21077 20.92527 3876 ft 250 kts 330°
2026-05-04 18:54 52.22621 20.91105 4093 ft 264 kts 330°
2026-05-04 18:54 52.24200 20.89649 4084 ft 256 kts 330°
2026-05-04 18:55 52.25724 20.88245 4071 ft 251 kts 330°
2026-05-04 18:55 52.28775 20.85431 4091 ft 252 kts 330°
2026-05-04 18:55 52.30397 20.84366 4044 ft 253 kts 353°
2026-05-04 18:56 52.32097 20.84721 4075 ft 252 kts 22°
2026-05-04 18:56 52.33492 20.86415 4093 ft 253 kts 52°
2026-05-04 18:56 52.34205 20.89026 4097 ft 253 kts 81°
2026-05-04 18:56 52.34047 20.91855 4100 ft 253 kts 110°
2026-05-04 18:57 52.33318 20.94446 4120 ft 254 kts 115°
2026-05-04 18:57 52.32554 20.97034 4102 ft 253 kts 116°
2026-05-04 18:57 52.31787 20.99623 4099 ft 252 kts 116°
2026-05-04 18:57 52.30925 21.02101 4072 ft 253 kts 132°
2026-05-04 18:58 52.29496 21.03680 4129 ft 252 kts 156°
2026-05-04 18:58 52.27870 21.04847 4100 ft 254 kts 156°
2026-05-04 18:58 52.26265 21.05986 4102 ft 253 kts 156°
2026-05-04 18:58 52.24658 21.07124 4100 ft 252 kts 156°
2026-05-04 18:59 52.23103 21.08367 4099 ft 252 kts 151°
2026-05-04 18:59 52.21556 21.09732 4100 ft 253 kts 151°
2026-05-04 18:59 52.20059 21.11055 4101 ft 253 kts 151°
2026-05-04 18:59 52.18509 21.12425 4100 ft 253 kts 151°
2026-05-04 19:00 52.16967 21.13787 4100 ft 253 kts 151°
2026-05-04 19:00 52.15427 21.15146 4100 ft 253 kts 151°
2026-05-04 19:00 52.13871 21.16519 4100 ft 253 kts 151°
2026-05-04 19:00 52.12348 21.17863 4100 ft 253 kts 151°
2026-05-04 19:01 52.10801 21.19227 4100 ft 253 kts 151°
2026-05-04 19:01 52.09257 21.20589 4100 ft 253 kts 151°
2026-05-04 19:01 52.07833 21.21843 4100 ft 253 kts 151°